Retour au catalogue

METEOR 2-17 DEB

ActifPO
NORAD 35369·DEBRIS·🇷🇺 Russia

Lancé Jan 30, 1988 depuis Plesetsk Cosmodrome

Loading…

Prochains Passages (prochaines 24 heures)

TLE

FraisSource: Space-Track

Époque: Sep 14, 2026, 14:01 UTC

1 35369U 88005AD  26257.58410016  .00000891  00000-0  59915-3 0  9994
2 35369  82.5252 197.8971 0018327  68.1284  53.5973 13.99578839758402

Suivez METEOR 2-17 DEB en temps réel avec AllMySat

Download on the App Store